TimeMDT,TemperatureF,Dew PointF,Humidity,Sea Level PressureIn,VisibilityMPH,Wind Direction,Wind SpeedMPH,Gust SpeedMPH,PrecipitationIn,Events,Conditions,WindDirDegrees,DateUTC
12:53 AM,72.0,24.1,17,29.73,10.0,South,12.7,-,N/A,,Clear,190,2013-07-22 06:53:00
1:53 AM,70.0,24.1,18,29.73,10.0,South,11.5,-,N/A,,Clear,190,2013-07-22 07:53:00
2:53 AM,70.0,21.9,16,29.73,10.0,South,11.5,-,N/A,,Clear,180,2013-07-22 08:53:00
3:53 AM,68.0,21.9,17,29.73,10.0,South,11.5,-,N/A,,Clear,190,2013-07-22 09:53:00
4:53 AM,75.9,19.9,12,29.74,10.0,SSW,9.2,-,N/A,,Clear,210,2013-07-22 10:53:00
5:53 AM,72.0,21.0,15,29.76,10.0,SSW,10.4,-,N/A,,Clear,200,2013-07-22 11:53:00
6:53 AM,66.0,26.1,22,29.78,10.0,South,11.5,-,N/A,,Clear,180,2013-07-22 12:53:00
7:53 AM,73.0,28.9,20,29.80,10.0,South,10.4,-,N/A,,Clear,190,2013-07-22 13:53:00
8:53 AM,84.0,21.9,10,29.82,10.0,West,9.2,-,N/A,,Clear,280,2013-07-22 14:53:00
9:53 AM,84.0,30.0,14,29.84,10.0,WNW,9.2,-,N/A,,Clear,290,2013-07-22 15:53:00
10:53 AM,87.1,30.9,13,29.85,10.0,WNW,8.1,-,N/A,,Clear,300,2013-07-22 16:53:00
11:53 AM,89.1,36.0,15,29.84,10.0,WNW,8.1,-,N/A,,Clear,300,2013-07-22 17:53:00
12:53 PM,93.0,28.9,10,29.83,10.0,WNW,9.2,-,N/A,,Clear,290,2013-07-22 18:53:00
1:53 PM,93.9,30.9,11,29.82,10.0,WNW,10.4,-,N/A,,Clear,300,2013-07-22 19:53:00
2:53 PM,96.1,28.0,9,29.81,10.0,NW,9.2,-,N/A,,Clear,310,2013-07-22 20:53:00
3:53 PM,98.1,28.0,8,29.81,10.0,NW,11.5,-,N/A,,Clear,320,2013-07-22 21:53:00
4:53 PM,99.0,27.0,8,29.77,10.0,WNW,15.0,-,N/A,,Clear,290,2013-07-22 22:53:00
5:53 PM,98.1,28.9,9,29.77,10.0,West,13.8,-,N/A,,Clear,280,2013-07-22 23:53:00
6:53 PM,95.0,33.1,11,29.77,10.0,WNW,9.2,-,N/A,,Clear,290,2013-07-23 00:53:00
7:53 PM,91.9,28.9,11,29.77,10.0,West,6.9,-,N/A,,Clear,280,2013-07-23 01:53:00
8:53 PM,84.0,25.0,12,29.78,10.0,SW,6.9,-,N/A,,Clear,230,2013-07-23 02:53:00
9:53 PM,80.1,18.0,10,29.80,10.0,SSW,10.4,-,N/A,,Clear,210,2013-07-23 03:53:00
10:53 PM,75.9,21.0,13,29.82,10.0,South,17.3,-,N/A,,Clear,190,2013-07-23 04:53:00
11:53 PM,71.1,21.0,15,29.84,10.0,South,11.5,-,N/A,,Clear,180,2013-07-23 05:53:00